Location: Mactaquac Provincial Park
(45.9573°N, 66.8897°W)
Time: 20:38:56
(UTC-04:00)

Daily predictions for brighter satellites

Satellite Brightness Start Highest point End
(mag) Time Altitude Azimuth Time Altitude Azimuth Time Altitude Azimuth
BREEZE-M DEB (TANK) 4.2 18:05:56 10° SW 18:10:21 72° SE 18:29:03 10° ENE
Cosmos 1992 Rocket 4.0 18:26:11 10° NNW 18:31:25 66° ENE 18:36:36 10° SSE
Cosmos 1782 Rocket 3.7 18:27:47 10° S 18:32:07 57° E 18:36:31 10° NNE
Cosmos 1812 3.3 18:30:54 10° N 18:34:29 34° ENE 18:38:02 10° SE
CZ-4 R/B 4.1 18:34:51 10° SSW 18:38:20 26° W 18:41:52 10° NW
Thor Agena Rocket 3.9 18:34:15 10° N 18:39:19 71° WNW 18:44:19 10° SSW
COSMO-SKYMED 1 2.5 18:37:21 10° NNE 18:41:44 82° ESE 18:46:04 10° SSW
Okean 2 Rocket 3.2 18:40:17 10° S 18:44:39 57° E 18:49:01 10° NNE
Cosmos 2360 Rocket 3.2 18:40:50 10° N 18:45:39 27° NE 18:50:25 10° ESE
Cosmos 1980 Rocket 3.1 18:41:10 10° NW 18:46:43 56° WSW 18:52:15 10° S
ERBS 3.8 18:43:40 10° WNW 18:46:57 40° SW 18:50:12 10° SSE
Cosmos 2219 Rocket 4.1 18:47:32 10° NNE 18:49:08 11° NE 18:50:44 10° NE
ATLAS CENTAUR R/B 3.2 18:46:19 10° WSW 18:50:23 31° NW 18:54:15 10° NNE
Cosmos 1745 Rocket 4.0 18:45:10 10° S 18:51:27 70° E 18:57:42 10° NNE
DMSP B5D1-3 4.5 18:47:04 10° NNE 18:52:14 73° ESE 18:57:21 10° S
Meteor 1-18 Rocket 4.1 18:48:59 10° N 18:54:32 71° ENE 19:00:06 10° SSE
METEOR-M 4.1 18:50:01 10° SSE 18:55:20 78° ENE 19:00:42 10° NNW
FREGAT/IRIS 2.6 18:55:08 10° SSE 18:58:10 58° ENE 19:01:14 10° N
Cosmos 1190 Rocket 4.3 18:54:32 10° S 18:59:26 44° ESE 19:04:21 10° NNE
NOAA 12 4.1 18:54:16 10° SSE 18:59:35 87° ENE 19:04:57 10° NNW
GEOS 3 Rocket 3.9 18:56:00 10° NE 19:01:05 48° ESE 19:06:10 10° SSW
Cosmos 2151 Rocket 3.9 18:58:37 10° SSE 19:02:51 42° E 19:07:08 10° NNE
ALOS 2.4 19:00:52 10° SSE 19:05:23 52° ENE 19:09:56 10° N
Cosmos 2333 Rocket 4.1 19:03:50 10° N 19:06:17 13° NE 19:08:07 11° NE
Cosmos 1386 Rocket 4.4 19:00:15 10° S 19:06:19 69° E 19:12:20 10° NNE
Cosmos 1238 Rocket 3.3 19:04:25 10° NNE 19:07:01 22° ENE 19:07:24 22° E
SJ-6B 2.8 19:05:05 10° SSE 19:09:08 82° ENE 19:13:07 10° NNW
FengYun 1-2 T 4.2 19:05:40 10° SSE 19:11:02 60° ENE 19:16:27 10° N
Cosmos 2292 Rocket 4.3 19:06:37 10° SSE 19:11:16 50° E 19:17:31 10° NNE
Spot 2 Rocket 3.7 19:06:45 10° SE 19:11:34 48° ENE 19:16:27 10° N
Cosmos 2082 Rocket 4.1 19:10:29 10° WSW 19:15:20 28° NW 19:20:13 10° N
Okean 1 Rocket 4.2 19:12:05 10° SE 19:15:36 23° E 19:19:08 10° NE
Cosmos 1461 2.7 19:12:19 10° NNW 19:16:20 74° NE 19:19:58 13° SE
SL-16 R/B 2.3 19:11:17 10° NNW 19:17:00 85° WSW 19:22:41 10° SSE
CENTAUR R/B 4.0 19:11:48 10° NW 19:19:18 50° WSW 19:27:15 10° S
Meteor 1-13 Rocket 4.3 19:18:56 10° N 19:24:21 54° ENE 19:29:49 10° SSE
Meteor 1-20 Rocket 4.3 19:18:54 10° S 19:24:44 87° E 19:30:37 10° NNE
Helios 1A 3.5 19:25:25 23° ESE 19:27:19 36° ENE 19:31:09 10° N
Envisat 4.0 19:27:16 23° ENE 19:27:54 24° ENE 19:31:55 10° N
Cosmos 1954 Rocket 4.4 19:23:31 10° S 19:28:16 38° ESE 19:33:05 10° NE
Cosmos 1633 2.9 19:26:37 10° SSE 19:30:05 40° E 19:33:35 10° NNE
NOSS 2-2 (E) 4.3 19:27:46 10° WSW 19:31:52 54° NW 19:36:50 10° NNE
HJ-1C 3.4 19:28:52 10° S 19:32:14 81° WSW 19:35:38 10° NNW
Okean 1 3.6 19:32:13 10° NNW 19:36:17 69° W 19:40:18 10° S
Cosmos 2322 Rocket 2.8 19:30:53 10° NNW 19:36:24 59° WSW 19:41:54 10° S
Cosmos 1340 2.5 19:35:49 10° N 19:39:38 76° ENE 19:43:10 12° SSE
SL-19 R/B 4.3 19:35:20 10° SSE 19:40:58 87° WSW 19:46:58 10° NNW
USA 215 4.3 19:36:22 15° NE 19:41:00 34° N 19:46:44 10° WNW
ERS-1 Rocket 4.4 19:45:45 21° NE 19:45:45 21° NE 19:48:32 10° NNE
Cosmos 2322 3.7 19:39:49 10° NNW 19:45:31 62° ENE 19:48:39 27° SE
CZ-2D R/B 3.1 19:47:17 29° SSE 19:49:09 75° ENE 19:52:58 10° N
Cosmos 1536 Rocket 4.1 19:45:07 10° NNW 19:49:32 62° W 19:53:57 10° S
Cosmos 1025 Rocket 3.9 19:46:42 10° N 19:49:43 32° NE 19:49:43 32° NE
Tiangong 2 2.4 19:48:06 10° W 19:50:50 29° SSW 19:50:56 29° SSW
Cosmos 2181 Rocket 3.9 19:45:20 10° N 19:51:34 88° E 19:57:53 10° S
Genesis I 4.4 19:48:14 10° NNW 19:51:14 29° NNE 19:51:14 29° NNE
Cosmos 1818 3.5 19:46:24 10° SSW 19:51:47 66° ESE 19:54:45 27° NE
Resurs 01 Rocket 1.9 19:48:51 10° S 19:53:14 67° WSW 19:57:39 10° NNW
Helios 1B rocket 4.4 19:56:57 17° S 19:56:57 17° S 19:57:56 10° S
Meteor 2-4 Rocket 3.6 19:49:21 10° N 19:54:57 61° ENE 19:58:03 26° SSE
COSMOS 2428 3.1 19:50:41 10° NNW 19:56:05 42° NE 19:56:56 39° ENE
Cosmos 2237 4.4 19:51:22 10° NNW 19:57:00 52° ENE 19:58:28 42° ESE
Meteor 1-11 Rocket 3.7 19:55:08 10° S 20:00:52 74° E 20:06:46 10° NNE
H-2A R/B 3.3 19:58:56 10° S 20:02:33 56° W 20:06:15 10° NNW
FENGYUN 3A 4.5 19:58:16 10° S 20:03:31 52° W 20:08:49 10° NNW
DELTA 2 R/B (1) 4.3 19:59:11 10° WSW 20:04:25 41° S 20:05:58 34° SSE
Cosmos 2237 Rocket 3.6 20:06:40 10° N 20:10:17 22° NNE 20:10:17 22° NNE
SL-08 ROCKET BODY 4.3 20:06:35 10° S 20:12:40 67° E 20:18:49 10° NNE
Cosmos 1570 Rocket 3.9 20:08:38 10° NNW 20:13:52 68° ENE 20:14:21 64° ESE
Cosmos 2184 Rocket 3.9 20:09:15 10° S 20:15:28 62° E 20:21:39 10° NNE
Cosmos 2074 Rocket 3.9 20:10:56 10° S 20:17:05 66° E 20:23:18 10° NNE
Cosmos 676 Rocket 4.3 20:12:10 10° SSW 20:17:19 67° WNW 20:22:33 10° NNE
Cosmos 407 Rocket 4.4 20:12:45 10° SW 20:17:49 48° WNW 20:22:58 10° NNE
Cosmos 1023 Rocket 4.3 20:14:40 10° SSW 20:19:45 82° ESE 20:21:03 51° NNE
USA 186 4.5 20:25:49 14° NNW 20:25:49 14° NNW 20:26:22 10° NNW
Cosmos 1300 Rocket 4.3 20:22:02 10° SSW 20:26:19 52° WNW 20:30:41 10° N
Cosmos 2360 Rocket 2.7 20:24:27 10° NNW 20:30:00 56° WSW 20:32:44 29° S
Cosmos 2219 Rocket 2.9 20:29:12 10° NNW 20:33:20 40° NNE 20:33:20 40° NNE
Nadezhda 3 Rocket 4.5 20:29:01 10° N 20:33:34 43° NE 20:33:34 43° NE
Cosmos 2208 Rocket 4.0 20:29:54 10° NNW 20:35:24 87° WSW 20:35:31 86° SSW
Cosmos 2285 Rocket 3.9 20:30:31 10° NNW 20:36:59 70° ENE 20:37:06 70° ENE
SL-16 R/B 4.2 20:37:20 10° N 20:39:22 16° NNE 20:39:22 16° NNE
Cosmos 1140 Rocket 3.9 20:43:29 10° SW 20:48:32 58° WNW 20:49:24 51° NNW
Cosmos 2333 Rocket 3.1 20:46:21 10° NNW 20:50:09 38° N 20:50:09 38° N
H-2A R/B 4.5 21:08:07 13° N 21:08:07 13° N 21:08:47 10° N
Envisat 4.0 21:07:28 45° WNW 21:07:28 45° WNW 21:11:33 10° NNW
USA 229 DEB 3.7 21:03:35 10° NW 21:10:23 81° WNW 21:10:23 81° WNW
USA 229 3.7 21:03:41 10° NW 21:10:27 81° WNW 21:10:27 81° WNW
USA 215 4.1 21:23:42 40° N 21:23:42 40° N 21:29:06 10° NW
NOSS 3-1 (A) 4.5 21:16:12 10° NNW 21:22:03 48° N 21:22:03 48° N
ATLAS 2AS CENTAUR R/B 4.2 21:21:55 10° NW 21:28:35 29° NNE 21:28:35 29° NNE
COSMOS 2428 4.3 21:35:12 10° NW 21:39:00 30° W 21:39:00 30° W
NOSS 3-1 (C) 4.5 21:37:59 10° NW 21:43:24 53° NNW 21:43:24 53° NNW
Cosmos 2237 Rocket 4.2 21:50:05 10° NNW 21:52:08 23° NNW 21:52:08 23° NNW
